Location: Grambois
(43.7619°N, 5.5873°E)
Time: 13:25:19
(UTC+00:00)

BREEZE-M DEB (TANK) - Pass Details

Date: 08 October 2020
Orbit: 333 x 12040 km, 49.7° (Epoch: 26 October)

Event Time Altitude Azimuth Distance (km) Brightness Sun altitude
Rises 02:22:32 0° 190° (S) 13,425 8.8 -35.9°
Reaches altitude 10° 02:33:30 10° 186° (S) 13,684 8.8 -34.2°
Maximum altitude 04:05:12 63° 123° (ESE) 10,602 8.6 -18.6°
Drops below altitude 10° 04:46:57 10° 58° (ENE) 7,938 9.0 -11.1°
Sets 04:50:54 0° 55° (NE) 8,118 9.1 -10.4°
